GFSSE_sfc_dewp_132.txt.gz
Dewpoint
71 72 75 75 76 75 75 76 75 76 76 77 77 77 77 77 76 76 75 75 75 76 75 75 75 75 75 75 74 74 74 74 73 74 74 74 74 74 74 73 74 72 74
72 72 76 76 76 76 75 75 75 76 77 77 77 77 77 77 75 75 75 75 76 76 75 75 76 75 74 74 73 72 72 72 72 72 73 73 74 73 73 73 73 72 73
72 73 74 76 76 76 76 76 75 75 76 77 77 77 77 76 76 75 76 76 76 75 75 76 75 74 73 72 72 73 73 73 74 74 74 71 70 73 74 73 73 73 71
72 74 75 76 77 77 76 76 76 76 77 77 77 77 77 77 76 75 75 75 75 75 74 74 74 74 72 72 74 74 74 74 73 74 72 72 70 72 72 73 74 73 72
73 74 75 77 76 76 76 76 76 76 76 77 77 77 76 76 76 76 76 75 76 75 75 74 72 72 73 73 74 74 74 74 74 72 71 71 72 70 73 72 72 73 73
74 74 76 77 76 76 76 76 76 76 77 77 77 77 76 76 76 76 75 75 75 75 75 74 73 73 73 74 74 74 75 73 73 70 70 71 71 74 73 73 74 73 73
74 75 75 77 76 76 76 76 76 76 76 77 77 77 77 76 77 76 75 74 74 74 75 75 74 74 74 73 73 73 73 72 71 69 69 71 71 73 71 72 73 74 73
75 75 75 76 77 76 76 76 76 75 76 76 77 76 76 76 76 76 75 75 75 75 75 76 74 74 73 73 73 73 72 72 69 69 71 72 73 74 72 73 73 73 73
75 75 75 75 75 76 76 75 75 76 76 76 76 77 77 76 76 75 76 76 75 75 75 75 74 74 74 74 72 72 73 74 67 69 71 73 75 74 73 72 73 73 73
74 75 75 75 75 75 74 76 76 76 74 74 74 75 75 74 74 75 76 76 75 75 75 74 74 73 74 74 72 72 73 73 66 68 72 73 75 74 73 72 72 71 71
73 74 74 74 74 74 75 74 76 75 74 74 73 74 75 73 74 74 75 75 74 74 74 74 74 74 73 74 72 72 73 70 67 68 71 73 75 74 72 72 72 72 71
69 73 73 73 74 74 75 74 75 74 73 73 73 72 74 73 74 74 75 74 74 74 74 74 74 74 73 72 72 72 74 72 71 69 70 74 75 75 74 73 73 72 73
68 70 73 73 74 74 74 74 74 74 74 74 74 73 74 73 74 75 75 74 74 74 74 74 75 73 73 72 72 71 71 71 71 70 70 74 75 75 74 74 75 75 74
69 68 73 73 73 73 73 74 74 73 73 73 73 73 73 73 72 73 74 74 73 73 73 73 74 74 73 72 72 71 70 69 70 70 70 73 76 76 74 74 73 73 73
69 69 72 73 73 73 72 73 73 73 73 73 73 73 73 72 72 72 72 73 73 73 72 73 74 73 73 72 72 70 69 69 68 69 69 73 76 76 75 73 73 72 72
70 70 72 73 73 72 72 73 73 73 73 73 73 73 73 73 72 72 72 72 72 72 72 72 73 72 72 71 71 70 70 69 68 69 68 70 76 76 75 75 75 74 72
70 71 72 72 72 72 72 72 72 73 73 72 73 73 73 73 72 72 71 71 72 73 72 72 71 72 71 71 71 71 70 69 68 70 69 69 71 76 75 76 76 76 76
69 70 71 72 72 71 72 72 72 72 72 72 72 72 72 72 72 71 70 71 72 73 72 71 70 70 70 70 70 70 70 68 68 69 71 69 70 70 74 75 75 75 76
69 70 70 71 71 71 71 71 71 71 71 72 72 72 72 72 72 72 70 70 71 72 72 71 71 70 69 69 69 70 70 69 67 65 70 70 71 70 71 73 75 75 75
69 70 70 70 70 70 71 71 71 71 71 71 71 72 72 72 72 72 72 71 71 71 71 71 71 71 70 70 68 68 69 69 69 68 67 68 71 71 71 73 73 73 75
69 69 69 69 70 70 69 70 70 70 70 71 71 72 72 72 72 72 73 72 72 71 71 71 71 70 69 70 68 67 67 68 67 67 68 67 68 71 72 72 72 72 72
68 68 69 69 69 69 69 70 70 71 71 72 73 71 72 72 72 72 72 71 72 71 71 70 70 69 69 69 67 65 63 64 65 66 67 66 67 67 69 71 72 73 73
68 69 69 69 69 70 70 71 71 71 71 70 71 71 71 72 72 72 72 71 72 72 70 70 70 69 68 68 69 66 63 61 63 65 66 66 67 66 66 68 70 72 73
66 68 70 70 70 70 71 71 70 66 64 67 71 71 70 72 72 73 72 72 71 71 71 70 71 70 69 68 68 67 66 65 64 62 64 66 68 67 67 67 67 69 72
68 69 69 70 71 72 71 70 70 66 65 65 70 71 71 71 72 72 72 72 72 71 71 71 70 70 70 68 68 68 68 66 65 65 62 63 65 67 68 68 68 68 70
69 70 70 68 67 71 71 71 70 69 69 69 70 70 70 71 71 72 72 72 72 71 71 70 70 70 70 69 68 69 67 67 65 65 65 65 63 65 66 67 68 69 69

GFSSE_sfc_dewp_138.txt.gz
Dewpoint
71 73 74 74 74 74 75 76 77 77 77 78 77 77 77 77 76 76 77 76 76 77 76 74 75 75 76 76 75 74 74 74 74 74 74 75 74 74 74 73 74 69 74
70 73 74 74 75 74 75 76 76 77 78 77 77 77 77 76 76 76 77 76 76 76 76 76 75 74 74 74 74 74 74 75 75 74 74 74 74 74 74 74 75 73 74
72 70 71 75 76 76 75 75 76 77 77 77 78 77 77 77 76 76 76 76 76 76 76 75 74 74 72 72 72 72 72 73 74 72 73 65 68 73 73 73 73 73 73
69 70 69 76 76 75 76 75 76 77 77 77 77 77 77 77 76 76 76 76 76 76 75 74 73 72 74 74 74 74 74 74 73 70 62 62 66 74 74 73 71 71 72
69 69 71 76 76 75 75 76 77 77 77 77 76 76 76 76 76 76 75 75 75 74 74 73 72 73 75 74 74 75 74 74 72 69 65 64 63 71 74 74 74 71 70
69 69 74 76 76 75 75 75 77 78 78 77 76 75 76 76 77 76 76 75 75 74 72 73 73 73 74 74 74 74 73 72 73 65 63 67 68 73 72 71 73 73 71
69 69 71 77 76 75 75 75 76 78 77 77 76 76 76 76 75 75 75 75 75 74 73 73 73 73 73 74 74 73 72 72 68 65 64 66 69 73 73 74 73 73 72
68 69 71 76 76 75 75 75 75 76 76 76 75 75 75 75 75 75 74 74 75 74 74 74 74 74 73 72 72 72 72 73 66 63 64 65 72 70 71 72 73 73 72
69 69 71 71 74 75 75 75 75 76 76 76 76 76 76 75 75 75 75 74 75 74 74 74 73 72 72 72 72 71 73 74 67 62 62 64 73 72 72 72 73 72 73
71 73 72 72 73 74 75 75 75 75 75 75 75 75 74 74 73 74 74 75 74 74 74 73 72 72 73 73 72 71 73 74 66 64 65 67 74 74 72 72 70 71 71
69 72 73 73 75 76 75 74 75 75 74 74 74 74 73 67 68 70 73 73 73 73 73 73 73 73 73 73 73 72 73 66 66 66 64 73 74 74 72 72 72 71 70
67 70 71 72 72 73 69 74 73 70 69 68 69 71 68 70 71 69 72 73 72 72 73 73 73 74 73 64 68 71 66 67 66 67 66 74 74 74 74 73 72 72 72
67 68 71 71 73 71 70 69 68 68 66 68 72 72 70 70 70 67 68 68 70 74 68 71 72 69 67 66 65 67 67 67 65 66 69 74 74 74 74 74 73 72 72
66 67 69 71 74 72 70 69 68 67 67 67 69 73 71 69 69 70 67 69 70 67 69 69 67 71 70 67 67 66 66 66 66 67 69 75 75 74 74 75 74 74 74
67 69 70 71 74 74 75 70 70 69 69 68 69 71 70 68 69 69 69 68 68 71 70 70 70 70 71 69 66 66 66 66 67 67 67 75 75 75 75 75 74 74 74
67 68 70 72 73 74 74 74 72 71 70 70 69 70 74 70 70 69 70 69 67 68 72 74 72 69 69 68 65 66 65 66 67 68 66 67 74 76 76 75 75 75 74
67 68 69 71 72 74 74 74 72 70 71 69 69 72 73 73 73 73 69 69 69 69 73 74 73 73 71 68 67 66 64 65 65 68 67 67 69 76 77 76 76 76 76
67 69 70 69 71 73 74 73 71 69 69 68 68 69 72 73 74 72 69 67 68 72 69 74 71 70 68 68 67 66 63 64 65 68 68 67 66 65 74 76 76 76 76
69 71 72 73 72 73 74 72 72 72 70 69 68 67 71 72 72 72 69 67 71 68 69 69 69 69 71 68 67 67 66 65 66 63 65 67 68 67 66 74 76 76 76
70 72 73 73 74 74 73 73 71 70 70 69 68 68 70 70 72 72 70 70 71 69 68 69 72 69 70 72 66 65 66 65 64 64 64 65 66 67 67 69 71 71 76
70 72 74 74 76 74 72 71 70 69 69 69 69 72 72 72 72 73 71 70 73 72 71 72 72 72 68 69 76 67 66 67 68 66 64 63 63 64 66 66 68 67 68
70 72 74 75 76 75 72 72 71 71 70 70 70 72 73 73 73 75 74 74 75 72 76 76 76 76 76 69 69 74 63 61 62 64 65 63 63 63 62 65 68 70 70
69 71 73 75 75 76 75 72 73 73 72 71 71 71 73 74 74 74 76 76 75 76 75 73 75 74 68 68 73 69 63 59 58 60 64 64 64 62 63 65 66 68 71
67 69 72 74 75 75 76 74 75 71 70 70 72 71 71 72 73 73 75 76 76 73 75 75 76 75 76 67 74 70 71 69 62 58 60 64 67 69 68 65 63 65 68
67 67 70 73 75 76 75 76 73 74 70 71 72 75 76 76 74 74 75 75 75 75 75 75 76 77 76 73 69 71 73 73 72 68 60 59 65 65 65 67 66 64 67
66 67 69 74 76 76 76 76 75 75 74 71 70 69 65 65 66 71 72 74 75 74 74 73 75 76 76 74 75 74 67 69 67 66 64 64 61 62 65 64 64 65 65

GFSSE_sfc_dewp_141.txt.gz
Dewpoint
71 73 73 73 75 75 76 77 77 77 77 77 77 77 77 77 77 77 77 76 76 76 75 76 75 75 74 75 75 74 74 74 74 75 75 75 74 74 73 72 75 69 74
71 73 75 74 74 75 76 77 77 77 77 77 77 77 76 77 76 77 76 76 75 76 75 76 75 75 75 74 74 75 75 75 74 74 74 74 73 74 73 73 75 71 73
70 70 71 75 74 73 75 75 76 77 77 76 76 76 76 77 77 76 75 75 76 75 75 75 74 73 73 72 72 72 73 73 73 74 75 65 68 73 73 73 74 74 73
68 69 69 75 74 75 75 74 76 77 77 77 76 76 76 76 76 76 76 75 76 75 74 73 72 73 74 73 73 74 75 73 71 71 70 63 68 73 73 71 71 72 73
69 68 71 75 75 74 74 75 77 77 77 76 76 76 76 76 76 75 76 75 75 75 73 72 73 75 74 75 74 74 74 73 73 72 64 64 66 73 74 73 71 71 70
68 68 73 75 75 74 74 77 77 77 77 76 75 76 76 76 75 76 75 75 74 72 73 72 74 74 74 74 74 74 72 72 73 62 63 66 69 72 72 73 73 70 71
70 67 70 75 75 75 75 76 77 77 76 76 75 75 75 75 75 76 76 75 74 73 74 73 73 73 74 74 73 72 73 73 71 62 63 68 71 73 72 73 74 73 71
68 68 70 75 75 74 74 76 77 76 75 75 76 75 75 75 75 74 74 75 75 74 75 74 74 74 73 72 72 72 73 74 67 61 63 68 72 72 72 73 73 73 73
68 69 70 70 73 74 74 74 75 75 75 75 76 75 75 75 75 75 75 75 75 74 74 74 74 73 72 72 72 71 73 75 70 61 61 66 74 73 72 72 71 72 72
69 69 71 72 72 72 71 75 75 76 74 74 75 75 74 73 73 75 75 75 74 74 73 73 72 72 73 73 72 71 73 74 69 61 62 68 74 75 73 71 71 71 71
69 70 72 72 75 75 73 73 75 75 75 74 73 74 72 70 69 73 74 74 73 72 72 73 73 73 73 73 74 73 73 67 70 60 67 75 74 74 72 73 71 70 70
68 69 71 73 73 73 70 74 73 72 70 69 68 72 69 67 70 70 72 73 72 72 73 73 73 74 73 63 68 73 68 68 61 63 68 75 74 74 73 73 72 73 72
65 66 69 71 73 71 70 70 71 68 66 67 71 71 69 68 69 65 72 68 72 74 69 72 72 68 65 64 63 64 68 64 62 63 71 75 75 74 74 74 74 72 72
64 65 66 71 72 70 68 67 66 65 65 65 68 73 72 69 69 70 65 66 70 65 69 67 65 68 68 68 65 65 64 63 63 63 69 76 75 75 74 75 75 74 73
64 66 68 71 75 73 72 68 68 67 66 66 67 71 70 67 69 68 68 67 66 67 66 68 68 68 69 69 68 65 64 64 62 63 66 76 76 75 74 75 75 75 74
65 67 68 70 72 74 73 74 71 69 69 67 67 67 73 70 70 68 69 68 67 66 72 70 70 69 68 68 69 68 65 64 63 64 65 69 76 76 75 75 76 75 75
65 66 68 70 71 73 73 72 71 67 66 67 66 70 71 73 73 74 68 67 66 69 73 71 73 75 70 68 70 70 65 64 61 64 66 69 71 76 76 77 77 77 76
66 68 69 68 70 72 73 73 70 67 66 65 65 66 71 71 73 73 68 66 66 70 68 68 69 70 72 70 69 69 68 65 64 63 65 66 67 66 76 77 77 77 77
68 70 71 71 71 72 74 72 72 72 69 68 66 65 70 70 70 71 68 67 72 66 67 70 69 70 68 68 65 68 69 66 64 61 64 67 68 68 68 75 76 76 76
68 71 72 73 74 74 73 74 71 71 69 69 69 68 70 68 70 71 69 71 72 67 66 67 71 68 68 67 65 65 68 68 66 63 63 62 64 66 69 70 73 73 76
69 71 74 74 76 75 73 71 73 70 73 69 70 72 72 71 73 74 73 72 73 71 72 75 76 74 71 69 73 68 67 68 67 64 64 63 64 65 67 68 70 68 69
69 71 74 75 77 77 73 75 74 73 71 75 75 76 75 73 75 75 76 74 74 71 72 74 75 73 74 74 71 71 65 63 66 64 65 64 64 63 63 66 68 71 70
68 71 73 75 76 77 76 73 73 74 73 70 71 71 74 73 74 76 75 75 76 76 71 74 73 71 72 74 73 70 65 61 61 65 67 62 67 64 63 65 68 70 72
66 69 73 75 76 76 77 76 77 71 70 68 69 70 72 72 71 73 76 76 76 73 76 72 73 73 71 70 73 69 71 68 63 60 60 63 68 69 70 66 65 68 71
62 64 70 74 76 76 77 77 73 75 69 66 66 72 77 74 73 73 75 75 75 75 76 76 75 75 72 73 70 70 73 73 73 66 62 60 60 64 65 69 66 64 68
60 62 66 73 76 77 76 76 76 75 73 70 68 66 58 55 55 64 65 70 74 73 74 73 75 75 75 74 72 74 69 69 67 68 66 66 63 63 65 67 68 68 67

GFSSE_sfc_dewp_144.txt.gz
Dewpoint
71 73 75 74 75 76 76 77 77 78 78 78 77 78 78 78 78 78 77 77 77 77 75 75 75 75 75 75 74 74 74 76 76 75 75 74 74 74 74 74 75 71 74
72 74 74 74 76 76 77 78 77 78 78 78 77 77 78 77 77 77 77 76 77 76 76 75 75 75 75 75 74 74 74 76 76 75 74 75 75 74 75 74 74 72 74
70 70 72 75 73 74 77 77 77 77 77 77 77 77 78 76 76 76 77 75 75 76 76 74 74 73 72 73 73 73 74 75 75 74 75 68 72 74 73 74 75 73 73
68 69 71 75 72 73 76 76 76 76 77 77 77 77 77 77 78 76 76 75 76 74 73 72 73 73 73 74 74 74 73 72 71 73 72 68 67 73 70 72 73 74 74
68 68 71 74 74 74 74 77 77 77 77 77 77 77 77 77 77 76 75 76 75 73 73 74 75 75 76 74 73 73 73 73 73 73 71 69 70 73 73 70 71 71 72
69 69 74 75 73 74 76 77 78 78 77 77 76 76 76 76 77 76 75 75 74 73 72 74 74 74 74 74 74 73 73 74 75 67 69 71 69 74 74 73 70 70 71
69 69 71 76 75 75 77 77 77 77 77 77 76 74 77 77 77 77 76 75 74 75 74 74 74 74 74 74 72 72 75 74 72 64 68 70 71 74 73 74 72 70 72
67 68 70 75 75 75 77 77 77 76 75 76 76 76 76 76 76 76 76 75 75 75 76 75 74 74 73 72 72 72 75 75 71 63 69 69 75 75 74 73 74 73 70
68 69 70 71 73 74 76 76 76 76 76 75 77 76 76 75 75 75 76 76 75 75 75 75 74 73 72 72 72 73 74 74 72 67 66 69 74 73 72 72 72 72 72
69 70 72 72 72 72 71 76 77 76 76 76 76 75 75 74 76 75 77 76 75 74 74 74 73 73 72 73 74 75 74 74 70 70 69 70 75 75 73 72 73 72 73
69 70 72 72 74 74 74 73 76 75 75 74 74 74 74 71 72 75 75 76 74 74 74 74 74 74 74 74 75 76 75 70 70 69 68 75 76 75 74 73 71 71 70
69 70 71 73 75 74 70 75 74 73 72 72 71 74 72 71 74 72 73 76 75 75 74 75 76 76 74 68 70 76 72 69 68 68 70 76 76 75 74 74 74 73 72
69 69 72 74 75 73 72 73 73 74 71 72 76 77 75 74 74 71 72 71 72 74 71 73 73 72 70 70 70 71 70 68 68 69 72 76 76 76 75 75 75 74 73
68 70 71 73 76 72 72 72 72 70 71 69 71 76 77 74 75 74 72 72 72 74 72 73 71 72 70 70 70 69 67 66 66 69 72 76 76 76 76 76 76 75 74
66 67 72 73 77 76 78 72 76 72 69 69 73 75 73 75 74 75 74 73 72 73 72 73 73 72 73 71 71 71 67 66 66 66 71 77 76 76 76 76 76 76 75
66 67 72 74 76 78 78 79 77 77 72 74 71 73 76 75 76 76 74 72 71 72 76 71 72 74 74 71 70 71 70 68 67 68 68 74 77 76 76 77 77 77 76
67 68 69 72 73 77 78 77 77 74 70 72 72 75 75 76 77 76 74 72 71 74 75 72 71 75 74 72 72 71 71 69 65 67 69 70 75 77 76 76 77 77 77
67 71 71 68 72 74 76 77 75 73 73 73 72 73 75 76 76 77 72 72 72 73 72 73 73 74 73 73 73 71 69 70 68 68 67 68 69 71 76 76 76 77 77
71 73 73 74 73 74 77 76 76 76 76 74 72 73 75 75 74 75 73 72 76 73 73 72 72 72 70 71 71 70 70 69 69 65 66 68 68 69 72 75 76 76 77
71 73 74 74 76 77 77 78 77 76 76 75 74 74 77 75 75 76 74 74 75 73 71 70 71 72 72 70 70 66 71 70 69 68 67 66 68 69 68 71 75 74 77
70 73 75 76 77 77 75 73 76 73 75 74 74 74 74 75 76 77 75 74 74 73 72 66 68 70 71 72 70 68 69 70 69 69 68 66 65 66 67 70 72 73 74
70 74 76 76 78 77 76 76 79 76 75 77 76 77 76 77 76 77 76 75 75 73 70 69 67 67 70 71 68 67 65 66 67 67 68 66 66 65 65 68 69 71 71
70 73 75 77 78 77 77 77 78 77 78 76 75 76 76 76 77 77 77 76 75 75 73 71 69 69 68 70 70 69 66 65 66 66 68 67 67 66 66 67 68 68 71
68 72 76 77 78 78 78 77 78 76 76 74 75 75 76 76 76 76 76 76 76 75 74 74 73 73 72 69 71 70 69 69 66 64 64 68 68 70 71 70 68 69 70
66 70 74 77 78 79 78 79 77 76 74 76 74 75 76 75 74 74 75 75 76 76 75 74 74 74 74 72 70 70 68 68 67 67 65 64 65 69 69 70 68 68 70
64 65 71 77 78 79 79 78 78 78 77 75 73 72 70 69 67 69 71 72 73 73 73 72 72 73 72 72 72 72 70 68 66 66 66 67 67 67 68 68 69 69 68

GFSSE_sfc_dewp_147.txt.gz
Dewpoint
72 74 76 76 77 77 77 77 77 78 77 78 78 78 78 78 78 78 78 77 77 75 75 75 75 75 74 74 73 75 76 75 75 74 74 74 74 74 75 75 74 72 74
72 73 76 77 77 77 76 77 77 78 78 77 78 78 78 78 77 77 78 76 75 76 75 76 75 75 75 74 74 74 74 76 76 74 75 75 74 74 75 74 74 73 74
71 72 73 77 77 76 76 76 77 77 77 77 78 77 77 77 77 76 75 76 76 76 75 74 74 73 73 74 74 74 74 74 75 75 75 72 72 74 74 74 73 74 73
69 71 72 75 76 76 76 77 77 77 76 77 77 77 78 77 77 76 76 75 74 74 72 72 72 71 72 74 74 74 73 72 72 73 72 70 66 70 72 74 74 74 74
69 70 70 74 76 75 77 77 77 77 77 77 77 78 77 77 76 76 76 74 73 72 75 75 75 75 74 73 73 73 73 73 73 72 71 70 71 72 70 71 72 73 72
69 71 74 75 74 75 77 78 78 78 78 77 77 76 76 77 76 76 74 74 72 72 75 74 73 74 73 72 72 72 74 74 74 69 69 72 72 75 73 72 71 70 70
70 72 72 76 76 77 77 78 77 77 77 77 76 77 77 77 76 76 75 73 73 73 74 74 75 74 74 72 73 74 75 74 73 69 68 69 72 75 74 71 70 73 73
70 71 72 75 76 77 77 76 76 76 76 75 75 76 76 76 77 76 76 75 74 75 74 74 74 74 73 72 73 75 75 74 72 68 70 70 74 76 74 74 73 71 72
69 70 72 72 73 76 77 76 77 76 76 77 76 76 76 75 75 76 76 77 76 75 75 74 74 74 73 74 74 75 74 74 72 68 68 72 76 76 74 74 74 74 72
69 70 70 71 71 73 75 77 77 77 76 75 75 75 75 75 75 74 76 77 76 75 75 74 74 74 75 75 75 75 75 74 71 69 65 69 75 74 72 73 73 74 73
69 69 70 71 71 70 72 74 76 75 75 75 74 74 75 72 73 74 75 76 75 74 74 74 74 76 76 75 75 76 76 71 70 69 68 73 75 75 73 74 74 73 74
69 70 71 71 72 72 71 74 74 73 73 73 72 72 73 72 72 74 75 76 74 74 74 76 76 76 74 72 69 74 73 72 68 68 69 76 76 76 75 75 74 73 71
69 70 72 72 72 71 71 73 74 73 72 72 71 71 72 73 73 72 72 74 74 74 73 73 73 74 72 71 70 70 71 70 68 69 70 76 77 76 76 76 74 73 72
69 70 71 73 74 73 72 72 72 73 72 71 71 72 72 70 71 68 71 72 72 72 69 69 73 72 71 68 67 69 67 65 66 69 71 76 76 76 76 76 75 74 74
68 70 71 73 73 73 73 72 72 72 72 70 70 71 71 70 69 71 69 70 71 71 70 70 68 68 70 69 68 68 68 66 65 67 70 76 76 76 77 76 76 75 74
69 70 71 72 72 73 73 74 71 71 68 70 70 71 71 71 71 72 72 71 70 70 71 66 65 64 67 71 70 69 68 69 67 66 69 74 76 76 77 77 77 76 76
69 70 70 72 73 73 72 72 71 71 69 68 68 72 72 71 71 70 70 70 70 71 70 64 64 66 68 71 70 69 68 68 68 66 64 69 74 76 77 77 77 77 77
66 70 71 70 71 73 73 71 71 71 72 70 69 73 73 73 72 73 71 69 70 71 72 69 65 66 70 70 70 71 71 69 69 68 65 64 69 73 76 77 76 76 76
67 69 68 70 71 71 73 72 73 70 72 70 70 70 73 73 72 71 70 70 71 72 70 72 71 71 69 70 68 66 65 68 70 69 67 65 64 67 72 75 76 76 76
70 71 71 72 72 72 74 73 73 73 73 72 72 73 71 71 72 73 72 72 72 71 71 69 67 68 69 70 71 70 67 70 71 70 69 67 66 65 68 71 74 74 76
70 71 72 71 74 74 74 71 72 71 72 72 73 71 72 69 71 72 72 71 72 71 70 70 66 65 65 69 68 67 66 67 69 70 71 69 67 65 66 68 71 73 73
70 71 73 74 73 74 74 73 74 72 72 73 73 72 73 72 72 73 72 72 72 72 70 69 67 64 66 70 67 67 64 63 64 66 69 69 67 68 64 65 67 71 71
70 72 73 74 74 75 74 74 74 74 74 73 72 74 73 73 73 74 73 73 72 72 71 70 68 66 65 68 68 66 63 63 66 65 65 68 69 70 69 68 67 68 71
69 72 74 74 76 75 74 74 73 71 71 71 70 72 71 72 72 74 73 73 73 72 70 70 71 70 69 68 68 69 67 66 63 62 62 66 68 69 69 70 69 69 67
69 71 74 74 76 75 74 74 74 72 72 72 70 67 66 66 63 67 67 68 68 70 71 70 70 70 70 68 68 66 67 66 66 65 62 60 64 65 67 72 73 72 67
68 70 74 75 75 76 75 76 75 74 73 71 68 65 67 64 62 64 66 67 67 68 68 68 68 68 68 69 69 69 68 66 65 64 63 63 64 64 64 67 70 70 70